Theta_e
305 305 305 304 304 303 303 303 303 303 304 299 296 297 288 287 284 295 299 301 298 291 283 286 285 283 287 290 290 291 290 289 290 289 291 288 291 290 290 289 287 287 287 288 286 280 279 281 280 280 282 283 286 285 287 287 288 289 282 284 286 297 281 281 279 280 284 287 288 290 291 291 287 289 288 287 285 285 283 276 279 280 281 280 278 277 279
305 305 304 304 304 304 304 303 304 304 303 300 298 290 289 290 288 290 299 301 299 289 282 282 282 285 289 289 288 292 290 289 288 289 290 289 290 290 290 289 290 288 290 288 287 286 277 283 282 282 283 284 287 286 287 288 287 288 284 284 292 281 279 278 276 277 281 282 285 287 289 289 286 285 285 288 288 286 284 283 282 281 282 282 280 275 277
304 304 304 304 304 304 304 304 304 304 304 303 298 291 292 289 291 292 294 299 297 286 288 285 283 285 284 285 285 287 289 292 291 290 289 293 291 291 288 288 289 287 289 289 289 290 282 280 283 283 283 285 289 286 287 288 287 289 291 301 292 283 279 280 273 272 272 272 275 276 278 283 283 285 286 286 288 285 284 280 281 278 279 281 279 275 285
304 304 304 304 304 304 304 304 304 304 304 304 299 293 291 287 281 286 289 295 294 292 294 289 285 284 284 283 285 287 286 291 292 292 291 293 292 291 291 290 290 287 289 286 287 288 288 282 281 286 285 288 292 287 287 289 288 296 303 299 291 282 282 281 277 274 274 278 277 281 283 282 283 284 286 285 286 288 286 281 278 280 277 281 281 288 290
304 304 304 304 304 304 304 304 304 304 304 304 298 293 289 288 281 281 280 287 289 287 291 289 289 284 288 282 287 284 287 289 290 294 287 294 294 293 291 289 287 287 286 284 285 288 289 289 284 285 288 289 290 293 286 287 293 304 302 297 288 282 281 282 282 282 283 281 283 285 287 285 284 284 285 285 287 287 285 282 281 281 283 278 285 292 291
303 303 303 303 304 304 304 304 304 304 304 304 299 292 293 283 284 291 292 285 280 282 284 289 287 289 289 285 287 285 286 288 286 292 293 293 294 287 289 290 290 290 288 287 283 285 284 285 282 289 289 290 290 290 290 286 295 302 294 295 288 283 279 282 283 282 288 289 287 289 287 285 283 286 286 286 287 287 287 284 282 285 282 282 286 292 292
303 303 303 304 304 304 304 304 304 304 303 303 299 292 295 293 292 292 295 286 286 284 286 289 288 288 289 286 287 286 287 286 289 288 287 290 288 289 281 286 289 289 291 286 284 284 281 282 286 286 287 288 285 287 289 292 292 295 291 291 287 286 280 283 285 285 287 287 287 288 287 286 286 286 285 287 287 287 288 284 284 285 281 284 290 292 292
302 303 303 303 304 304 304 304 304 304 303 301 298 296 292 291 290 289 294 292 290 290 289 289 290 287 291 286 287 288 287 287 289 290 288 281 285 290 285 287 289 289 290 287 286 289 287 287 284 288 287 287 286 286 286 288 291 290 290 289 288 287 279 290 285 284 286 287 288 287 286 285 285 286 285 285 286 286 286 285 286 288 288 288 291 291 289
303 303 303 303 303 304 304 304 305 304 303 295 293 294 297 295 297 297 291 287 288 290 290 289 288 286 286 284 286 287 287 287 289 288 291 288 285 288 286 289 289 289 289 288 289 291 291 291 292 291 287 287 291 287 289 293 289 289 288 289 290 289 282 286 283 283 283 286 286 285 285 286 284 284 285 285 286 285 286 284 286 286 287 290 291 288 288
302 302 303 303 303 304 304 304 305 304 304 296 294 291 298 297 301 300 294 285 291 287 290 290 288 284 287 288 289 288 287 289 290 284 285 288 290 290 289 289 287 286 288 289 290 293 293 294 294 293 293 295 294 294 295 293 290 287 287 288 285 285 286 286 281 282 278 286 285 285 283 284 284 283 284 284 284 284 285 286 289 290 293 289 287 288 294
302 302 302 303 303 303 303 304 304 304 303 297 295 294 296 293 291 294 293 284 286 288 288 288 285 290 292 293 291 293 291 292 292 285 283 288 290 292 291 290 287 284 286 293 296 296 297 296 295 296 296 296 296 295 295 295 293 290 287 286 285 288 290 283 282 281 278 283 283 283 280 275 275 283 288 288 286 285 286 285 288 293 292 289 290 290 296
301 302 302 302 302 302 303 304 304 304 303 302 301 297 298 299 297 295 288 283 285 289 287 286 287 290 290 292 292 291 291 291 291 292 288 285 289 291 291 290 289 283 291 295 298 298 298 298 297 297 294 293 295 295 295 293 293 293 290 286 286 288 287 282 281 281 281 281 283 280 276 278 283 288 287 289 288 287 288 288 288 287 286 287 291 295 296
301 301 301 302 302 302 302 303 304 304 304 303 301 296 300 302 296 292 290 287 284 287 286 288 292 292 292 292 292 292 293 293 293 292 291 289 287 289 290 289 287 290 297 297 298 292 291 289 289 289 293 289 291 292 293 293 293 293 292 290 289 286 285 280 281 278 279 278 276 275 275 283 288 287 288 289 289 289 289 288 290 286 287 288 291 294 297
300 301 301 301 301 301 302 302 303 303 304 304 300 299 300 300 295 293 292 287 286 289 289 289 292 292 293 293 294 294 295 292 289 290 288 289 289 290 292 294 294 295 297 298 293 289 287 282 282 281 286 284 285 284 289 291 292 292 292 290 290 290 286 285 281 281 281 278 277 280 284 287 286 286 288 290 287 288 287 284 286 287 286 289 293 296 297
300 300 300 301 301 301 301 302 302 303 303 304 301 300 300 301 299 295 296 293 286 289 290 285 290 291 293 293 294 293 290 288 286 284 289 290 289 291 293 295 297 297 298 295 288 284 283 280 282 280 280 279 276 280 286 285 291 292 291 289 287 286 289 284 285 279 280 280 277 279 279 280 285 289 291 294 289 292 288 288 285 286 287 290 297 296 297
300 300 300 300 301 301 301 302 302 302 303 303 301 300 300 301 301 299 296 292 289 285 288 292 295 293 292 292 294 293 289 285 286 285 283 285 289 292 295 297 298 298 297 291 286 281 281 284 278 275 275 276 283 282 281 285 286 291 291 290 290 289 288 286 287 282 280 279 279 277 279 281 286 291 292 294 291 291 288 288 284 285 292 294 297 296 297
300 300 300 301 301 301 301 301 302 302 303 303 300 299 298 303 300 298 295 295 293 287 295 296 296 294 293 291 293 291 293 287 287 282 280 282 287 290 293 296 296 297 295 290 283 284 283 279 276 277 282 279 280 279 284 283 284 286 292 288 287 286 280 280 283 280 281 281 278 277 277 281 290 288 292 292 292 291 288 279 280 288 293 297 297 297 297
299 299 300 300 300 301 301 301 302 302 303 304 301 298 298 303 303 301 297 294 289 289 294 296 296 293 291 292 292 295 296 292 289 286 285 284 285 287 290 293 292 296 297 290 282 280 277 274 278 276 277 283 285 285 278 281 282 283 285 284 282 280 281 281 283 281 278 282 275 275 279 286 286 288 292 293 293 290 281 279 282 290 295 298 298 298 298
299 299 300 300 300 300 301 301 302 302 303 303 302 300 298 301 303 302 298 296 295 288 295 298 300 297 299 301 297 298 298 294 291 288 283 283 287 289 293 293 294 288 290 285 280 280 280 282 282 280 280 281 286 282 284 283 281 285 284 283 284 280 278 281 279 280 281 276 280 280 275 283 289 291 294 293 291 282 281 286 288 294 296 298 299 298 298
299 299 299 300 300 300 301 301 301 302 303 303 302 296 298 301 302 302 298 294 295 294 297 298 299 297 300 297 294 293 293 293 289 287 283 285 289 292 288 287 290 291 288 285 286 282 281 282 281 282 278 280 284 282 280 280 286 284 284 284 282 284 282 280 279 277 276 270 273 276 279 284 294 294 292 294 285 285 285 289 292 297 297 298 298 298 298
299 299 299 299 300 300 301 301 301 302 303 303 303 298 296 299 301 302 303 299 295 290 291 299 301 300 300 299 300 299 297 293 290 290 289 289 291 287 281 280 285 287 286 285 283 284 280 282 283 281 283 282 286 285 282 279 285 289 289 286 285 287 285 280 278 281 280 275 277 276 280 284 295 296 290 291 290 291 289 293 293 295 296 297 298 298 298
298 299 299 299 300 301 301 301 302 302 303 303 303 300 295 298 299 300 301 302 295 291 293 298 301 301 303 304 304 303 302 301 301 299 293 287 289 291 289 289 290 289 289 286 284 284 284 283 283 282 282 284 281 280 283 281 280 284 291 288 285 288 285 285 284 284 280 279 280 281 285 288 288 289 291 289 291 291 293 294 297 296 296 295 297 296 297
298 299 299 299 300 300 300 301 301 302 302 303 302 299 295 298 299 302 301 295 299 300 301 301 302 302 304 305 305 306 307 307 305 303 299 291 286 290 292 290 290 293 296 292 290 285 285 284 282 282 283 282 284 282 283 281 279 283 285 290 287 291 289 287 286 286 286 286 285 287 287 287 288 289 289 289 290 291 292 295 295 296 298 298 297 296 294
298 298 299 299 300 300 300 301 301 302 302 303 302 299 298 299 300 299 298 297 291 290 293 296 294 290 293 296 299 304 305 305 305 306 304 301 291 286 289 294 297 296 292 292 290 292 286 283 286 285 283 285 284 279 282 280 278 283 284 285 284 289 290 287 286 288 287 283 286 286 287 287 288 288 290 290 290 290 292 294 295 296 296 296 296 295 294
298 298 299 299 299 300 300 301 301 301 302 302 302 302 302 300 301 299 296 290 287 286 287 288 288 296 299 301 302 300 301 304 305 305 305 304 301 295 291 296 297 295 293 294 291 289 285 286 287 284 284 287 289 282 282 282 284 285 284 283 285 289 291 288 286 286 283 283 287 287 287 287 288 287 289 290 290 290 291 292 293 295 295 295 295 294 294
297 298 299 299 299 300 300 301 301 301 302 302 303 299 297 297 298 299 298 297 294 291 287 285 290 297 299 298 297 300 303 300 300 304 304 305 305 304 301 298 298 297 293 292 294 291 284 285 281 280 284 287 289 283 281 283 286 285 286 284 288 290 292 285 285 285 283 286 288 288 288 288 289 289 288 288 289 290 291 292 293 294 293 293 294 295 295
297 298 298 299 299 300 300 301 301 301 302 302 301 300 299 299 300 298 296 294 290 284 283 282 286 292 295 295 298 300 300 300 300 300 299 300 300 301 300 299 298 294 296 291 286 282 283 283 283 286 284 287 286 285 285 287 285 283 284 288 289 289 287 287 286 284 282 285 287 290 287 286 287 287 288 289 290 291 291 292 292 293 293 293 293 293 294
297 298 298 299 299 300 300 301 301 301 302 302 302 300 299 297 297 300 299 295 291 284 283 281 287 292 296 292 296 298 300 299 299 297 296 296 296 298 299 298 296 292 290 290 290 288 283 287 288 284 282 287 286 286 285 285 284 284 284 287 287 287 286 286 284 284 283 288 289 289 287 287 287 288 288 289 291 292 292 292 292 293 294 294 293 292 293
297 298 298 299 300 300 300 301 301 301 302 301 299 297 294 295 296 299 300 299 296 289 284 287 289 288 287 293 297 298 297 298 298 296 295 295 295 294 295 295 293 290 289 287 285 283 283 287 285 286 288 289 288 287 287 284 280 281 281 287 287 288 288 291 290 287 288 290 290 289 288 288 288 288 289 290 291 292 291 291 292 293 293 294 294 294 293
297 298 298 299 299 300 300 300 301 301 301 299 297 287 285 295 296 297 299 301 296 293 286 284 283 282 289 293 294 294 294 294 296 296 295 294 294 293 294 294 293 292 291 289 286 286 286 287 284 284 288 290 289 284 281 280 280 284 286 286 289 289 289 290 291 292 290 290 289 289 289 289 289 290 289 290 292 293 292 291 292 292 293 294 294 294 295
297 298 299 299 299 300 300 301 301 301 301 297 293 282 282 285 292 299 301 297 295 293 286 284 285 286 287 291 291 292 293 293 293 293 294 294 294 294 294 292 291 292 288 284 285 285 283 284 282 287 288 290 283 279 281 281 282 282 287 287 287 287 289 290 289 290 291 291 291 291 290 290 289 291 290 289 290 292 292 291 293 295 295 295 294 295 295
297 298 298 299 299 300 300 301 301 301 298 295 290 284 286 289 294 297 300 300 298 293 289 285 282 281 281 286 289 292 293 293 292 291 290 293 295 292 290 291 290 289 290 285 284 284 285 283 284 285 287 288 285 278 279 278 280 284 286 287 287 288 289 290 290 291 292 293 292 290 289 288 290 288 288 288 289 290 292 292 293 294 296 295 295 296 296
297 298 299 299 299 300 300 301 301 300 296 298 301 302 302 303 303 303 303 297 294 288 286 286 282 281 280 285 290 290 292 292 291 287 289 290 293 289 289 289 287 288 295 288 285 285 285 281 281 284 288 284 280 277 280 278 283 285 286 288 288 289 288 289 290 291 292 289 289 287 287 289 288 288 290 290 291 291 292 292 293 294 294 294 295 295 296
298 298 298 299 299 300 300 300 301 301 301 297 293 293 296 302 301 304 297 296 289 286 285 287 284 282 283 286 287 289 291 288 286 285 285 289 288 288 285 286 286 286 289 287 284 284 284 282 283 281 281 281 278 282 282 283 284 285 287 289 288 288 289 290 289 289 287 288 289 289 290 290 289 290 290 291 290 291 293 293 293 293 294 295 295 296 296
298 298 298 299 299 300 300 300 297 293 286 286 288 290 296 304 303 304 301 294 288 285 284 283 282 280 279 280 274 281 288 290 287 284 284 287 287 289 285 284 282 283 287 285 280 279 279 283 284 282 283 281 281 281 276 280 284 286 287 288 288 289 291 290 289 287 288 289 290 290 290 291 291 289 289 290 291 292 292 292 293 294 294 294 295 295 295
298 298 299 299 299 299 296 298 295 290 287 287 288 297 302 303 304 300 300 297 291 280 279 278 279 279 277 277 277 284 289 289 286 283 283 282 285 286 282 281 282 285 283 281 282 278 282 287 285 282 276 279 278 281 284 283 286 286 287 288 289 289 289 290 289 288 289 290 290 290 290 290 290 289 289 290 291 292 293 293 294 295 294 294 294 294 294
298 298 299 298 295 293 287 284 291 292 291 294 298 301 303 302 299 297 294 295 295 294 287 277 281 281 282 279 277 280 286 280 281 281 279 282 282 279 280 280 281 282 278 278 276 280 285 284 278 276 277 280 280 280 282 284 288 288 287 288 290 287 288 289 290 290 289 289 289 289 289 289 289 289 290 290 291 293 294 293 294 294 293 293 293 293 293
298 298 291 288 287 284 284 285 289 295 299 299 299 294 290 292 287 284 286 287 287 295 282 284 279 280 283 283 282 285 285 280 281 282 280 278 281 281 278 281 280 282 280 276 278 286 278 277 277 278 276 280 281 283 284 286 287 288 288 289 288 288 290 291 291 291 289 287 286 287 287 287 288 288 290 289 291 292 293 295 295 295 294 293 293 292 292
295 289 286 285 285 281 283 287 294 298 295 295 293 289 288 281 283 283 283 282 283 285 282 283 282 281 283 282 284 287 286 285 278 277 280 282 281 278 279 278 278 277 274 277 279 283 280 275 271 273 274 277 282 286 286 286 286 287 288 288 289 291 292 292 293 293 291 290 290 290 290 289 288 288 289 290 291 293 294 295 295 294 294 293 292 292 292
287 285 281 280 279 282 290 293 297 294 293 288 282 283 283 282 282 282 280 282 283 278 281 282 283 283 286 288 284 282 284 284 282 277 276 279 284 281 279 277 277 277 275 272 275 278 279 276 271 273 274 275 280 282 286 288 288 288 288 289 290 292 293 294 292 289 290 290 290 291 290 291 292 291 290 291 292 292 293 293 293 293 292 291 291 291 290
287 286 282 278 284 287 290 292 293 290 285 285 284 281 279 280 281 281 280 276 276 279 282 282 281 284 284 283 283 282 285 288 283 281 277 279 281 281 276 277 279 277 272 272 274 274 271 272 268 273 277 278 280 284 286 287 288 288 287 288 290 292 291 291 290 290 291 292 292 291 291 292 291 291 292 293 293 293 292 292 291 291 291 290 289 290 291
288 288 289 291 292 292 292 291 288 286 283 283 280 278 278 279 280 280 279 278 277 273 280 284 281 280 281 285 284 283 284 287 282 278 279 278 282 278 276 274 275 273 272 274 274 271 273 275 269 271 277 279 280 283 287 287 286 288 288 288 290 290 290 291 291 291 292 292 291 292 293 292 291 291 291 292 292 291 291 290 289 290 290 290 290 290 291
297 295 292 290 288 287 286 283 282 281 280 279 276 276 277 278 278 279 278 277 277 281 281 285 284 285 288 287 286 286 285 286 287 282 280 282 280 275 273 273 274 273 277 275 272 269 272 271 268 276 279 279 281 284 288 289 288 288 288 289 290 291 292 292 292 291 290 292 291 292 292 292 292 292 292 291 291 290 290 290 290 290 291 290 290 290 290
292 292 289 286 285 284 283 280 284 282 278 276 275 275 276 276 277 276 277 277 278 282 282 284 282 283 282 282 285 282 282 286 283 278 278 277 277 274 272 273 275 277 277 272 271 275 272 266 274 277 277 279 283 284 285 286 287 287 288 289 289 290 290 290 292 292 290 289 290 291 293 293 293 293 293 292 292 291 290 290 290 291 290 289 289 290 290
285 285 285 285 283 282 281 276 279 277 275 276 277 275 275 275 275 273 279 279 281 284 283 282 283 284 283 282 282 283 282 281 281 279 279 277 275 274 274 275 273 270 272 272 267 267 271 273 277 278 280 280 285 285 285 286 288 290 289 287 288 289 290 291 290 290 290 290 290 291 292 292 292 292 292 292 292 292 291 290 290 290 290 290 289 289 289
283 284 282 279 275 277 277 274 275 276 276 277 277 277 278 278 279 278 280 281 283 282 283 283 283 284 282 281 283 283 278 278 280 278 276 273 274 276 276 275 274 272 269 265 267 268 271 275 279 280 281 283 285 286 286 285 286 288 291 290 288 289 289 290 290 291 291 290 289 291 291 292 292 292 292 292 292 292 292 291 291 291 290 289 289 289 289
285 286 283 279 275 276 278 276 275 276 280 279 280 279 280 283 283 283 282 282 283 283 283 283 284 284 283 281 283 281 277 275 278 277 277 278 276 276 276 276 274 268 270 267 266 263 267 275 276 279 280 283 284 285 287 286 287 289 289 289 288 289 289 290 290 290 289 289 290 291 291 292 292 292 292 291 291 291 291 290 290 290 290 290 289 289 289
283 284 282 275 273 275 277 276 279 279 279 280 280 279 280 281 281 282 283 282 283 284 284 283 281 281 283 281 281 279 278 276 278 278 277 277 277 272 269 269 266 266 267 271 267 270 274 276 279 281 282 285 287 287 287 287 287 288 288 289 288 288 289 290 289 289 288 289 289 290 291 291 291 291 291 291 290 290 290 290 290 290 290 289 288 287 287
286 284 280 276 277 278 275 275 279 281 280 278 279 279 280 282 281 282 284 282 282 283 284 284 278 281 281 280 279 280 280 279 276 276 277 275 274 271 269 268 265 268 268 271 272 275 276 280 279 280 282 286 287 289 288 288 289 288 289 289 289 290 289 290 289 289 289 289 289 289 290 290 290 290 290 290 289 288 289 290 290 289 289 288 287 286 286
285 283 284 281 279 276 277 277 278 276 278 279 279 279 279 280 280 282 283 284 284 282 283 283 283 283 281 281 277 275 278 276 276 277 274 273 269 270 268 268 265 270 270 273 275 277 279 279 279 282 284 286 287 289 288 287 287 289 289 289 289 289 290 289 288 288 289 289 289 289 288 288 288 288 288 289 289 289 289 289 289 289 287 287 287 287 286
284 283 280 280 279 275 279 276 275 276 278 279 279 280 280 280 281 283 283 284 284 280 277 280 279 278 279 275 275 276 278 278 278 276 274 273 272 270 272 272 270 272 275 277 279 279 279 279 281 283 284 287 288 289 289 289 289 289 289 289 289 289 289 289 289 288 288 288 288 286 288 288 289 289 289 289 288 288 287 287 287 287 287 287 287 287 287
277 279 278 276 279 279 280 279 279 279 279 280 280 279 280 280 281 283 284 283 281 278 278 277 279 277 274 275 275 278 280 276 274 274 275 274 273 272 270 270 274 278 279 279 282 280 279 279 282 285 287 288 289 289 288 288 288 288 289 289 289 289 288 288 288 288 287 287 287 288 289 289 288 287 288 288 287 287 287 287 286 286 287 287 287 288 288
Wind_Speed
23 23 22 20 20 20 20 21 19 17 16 6 4 2 2 4 0 3 2 2 2 3 1 0 0 2 2 4 7 6 5 5 4 5 3 2 5 2 2 3 1 2 1 0 2 5 1 3 3 2 2 2 8 5 11 9 11 9 3 3 4 3 1 3 2 5 5 3 3 0 6 12 4 6 5 7 7 7 7 4 7 6 3 2 0 1 2
22 23 23 21 20 20 19 19 19 16 13 6 5 2 2 1 1 2 0 1 3 3 2 2 1 2 3 4 6 5 5 3 4 4 2 2 4 2 2 2 2 1 1 1 1 2 3 2 4 0 1 1 5 7 8 11 6 9 6 6 3 3 2 6 1 1 0 4 3 2 1 1 4 5 5 8 6 3 2 6 2 3 8 9 7 5 2
22 22 23 22 21 20 19 18 17 14 14 8 2 1 1 1 1 0 1 1 1 3 2 3 2 3 5 4 5 5 3 5 8 6 5 4 4 1 2 3 0 2 1 0 1 0 2 1 2 2 4 3 1 4 9 8 5 5 7 7 7 3 3 4 3 7 7 7 8 8 6 9 1 1 6 6 11 6 5 5 2 7 2 4 3 2 4
23 22 22 22 22 21 19 17 14 14 14 11 2 0 2 1 0 1 1 1 2 3 2 2 3 4 4 3 3 3 4 2 4 7 8 8 6 4 3 4 1 2 0 1 2 2 1 2 3 2 1 1 1 1 8 9 5 4 12 8 8 3 1 4 6 6 6 6 3 2 4 3 5 4 7 7 5 9 7 6 6 9 3 6 4 8 7
22 22 22 22 22 21 21 18 14 14 14 9 3 1 1 0 0 0 2 1 3 5 2 3 3 2 2 3 3 3 3 6 5 4 1 2 1 1 1 2 2 3 2 1 2 0 1 1 8 4 1 2 2 2 7 6 10 11 7 10 6 3 3 5 6 6 7 4 3 1 0 5 7 6 7 7 9 6 8 8 8 5 10 5 1 6 14
22 22 22 22 22 21 21 20 17 16 15 6 2 1 1 1 1 1 1 0 2 2 2 5 5 8 5 3 2 4 6 5 3 1 4 6 2 1 1 3 3 1 1 0 2 2 1 2 5 1 0 1 3 2 3 3 6 8 5 6 4 5 4 3 4 5 1 0 1 2 2 1 3 9 10 8 8 9 11 7 4 10 7 8 10 13 12
22 21 21 22 22 22 22 21 19 16 16 5 2 2 2 2 2 3 2 1 1 4 4 1 6 8 5 2 2 3 4 4 2 1 4 3 3 1 2 5 9 5 3 2 2 0 3 1 1 2 1 0 1 2 2 0 3 4 2 5 1 4 3 4 5 4 0 3 2 1 5 1 2 1 7 9 14 12 10 4 5 9 3 4 16 18 12
22 21 21 21 21 21 21 22 21 16 15 3 1 2 3 2 3 2 1 2 6 6 4 3 3 3 4 3 3 2 3 5 6 3 1 3 4 3 4 6 9 6 4 2 3 0 1 1 3 2 3 1 0 1 2 1 4 1 5 5 2 4 3 6 4 3 0 4 5 7 2 3 4 2 1 1 2 4 2 4 3 7 8 2 11 12 5
22 22 21 21 21 21 21 21 21 16 12 4 4 3 2 3 3 4 5 6 4 2 2 2 1 1 1 1 3 1 1 2 3 5 2 3 2 3 3 4 9 3 6 6 4 1 1 3 3 3 3 5 2 2 2 3 2 2 3 3 1 3 1 2 3 5 1 3 4 4 5 4 3 2 2 3 6 6 3 4 5 6 7 9 10 5 4
22 22 21 20 20 19 21 21 19 16 10 2 1 2 2 3 2 3 3 3 3 4 5 4 0 1 2 2 2 1 3 3 3 3 3 1 2 1 3 4 3 5 8 6 5 4 2 2 2 2 3 0 0 1 1 4 6 6 4 0 5 4 5 3 1 5 1 1 1 4 3 4 1 2 2 3 5 3 0 3 3 1 15 13 9 11 8
22 21 20 20 20 19 19 20 19 16 8 4 4 2 2 2 3 3 0 2 1 2 5 2 0 2 2 2 5 4 4 3 1 1 3 3 2 2 3 4 4 3 1 2 4 2 4 2 2 1 2 2 4 4 4 4 2 3 5 2 1 6 7 4 1 5 1 2 2 2 4 1 5 1 2 3 2 2 5 4 4 7 6 5 2 4 13
22 21 21 20 20 19 18 18 18 18 11 5 4 4 2 2 3 2 2 3 3 1 2 4 3 3 4 6 3 5 7 7 4 4 4 3 5 4 2 2 1 2 1 2 5 4 2 0 1 1 4 4 3 1 2 1 4 3 3 3 4 7 5 4 1 4 2 2 3 3 1 7 1 1 2 5 5 3 2 1 1 1 1 1 3 14 20
21 22 21 21 20 20 19 17 18 19 16 7 5 5 1 1 3 2 4 3 4 4 6 6 4 7 8 9 7 6 6 7 4 6 4 3 4 2 2 3 3 3 2 8 9 5 3 0 1 1 1 2 1 2 1 5 4 6 5 3 5 8 8 4 3 3 2 3 2 2 5 2 0 2 3 2 3 3 5 2 1 3 3 5 6 6 8
22 22 22 22 21 20 19 19 18 17 17 12 7 5 3 1 2 3 2 2 5 1 2 8 4 6 7 6 5 7 4 3 2 2 2 3 5 6 5 3 5 2 4 4 4 2 2 4 1 2 1 3 1 2 3 1 2 8 8 5 1 8 6 5 3 1 4 3 3 4 3 5 1 3 2 6 6 8 7 7 8 5 3 5 8 9 10
22 22 22 22 21 20 20 20 19 18 17 14 6 5 4 3 3 3 3 2 4 7 1 2 7 8 7 7 3 5 2 2 3 2 3 0 2 5 5 6 3 3 2 3 3 4 2 2 1 2 2 2 1 1 2 1 3 4 6 4 4 1 7 4 8 1 4 7 2 1 1 3 7 8 3 5 1 1 1 2 2 2 5 5 11 14 14
22 22 22 22 21 20 20 19 19 19 18 17 6 5 5 4 3 3 3 2 3 6 3 4 2 4 5 6 4 4 3 2 2 2 3 1 4 5 4 5 4 1 0 3 1 2 1 1 2 3 2 2 1 1 0 2 2 2 5 6 5 6 4 3 8 5 3 4 5 3 5 7 6 7 5 4 3 2 2 2 5 4 9 8 13 14 14
22 22 21 20 21 21 21 20 20 20 18 18 8 7 5 0 2 3 3 2 2 6 9 8 3 2 4 5 2 2 0 1 0 2 3 3 2 2 8 3 0 2 3 1 3 1 2 4 1 1 1 1 1 1 1 1 1 2 3 5 7 6 3 4 6 4 3 6 4 5 4 1 1 3 0 6 6 4 2 1 6 8 13 13 15 17 18
22 22 22 21 21 21 21 20 20 20 18 17 9 7 5 2 3 2 3 4 2 5 4 2 2 5 2 2 3 3 0 1 2 0 1 3 2 2 2 3 2 0 2 1 0 3 2 2 2 2 1 2 1 0 2 3 4 4 3 1 1 2 2 4 8 6 4 9 2 3 4 4 2 2 3 6 4 3 3 7 2 8 13 15 16 17 16
22 22 22 22 21 21 21 21 20 19 19 18 11 6 2 1 1 3 4 3 2 5 6 4 3 7 7 3 4 3 1 1 0 1 5 2 1 2 1 2 1 1 6 2 2 1 2 0 0 2 3 1 1 2 1 1 3 1 3 4 1 1 1 1 4 6 8 6 7 7 3 5 3 1 5 4 5 3 6 6 1 11 14 14 16 18 18
22 22 22 22 22 21 21 21 20 19 19 19 11 6 7 6 3 4 3 3 2 7 12 10 4 7 2 2 2 3 4 3 0 1 1 0 2 3 2 1 2 2 2 2 0 1 1 1 1 1 1 1 1 2 1 1 1 3 1 2 4 7 4 4 4 2 4 3 3 2 2 2 6 10 3 1 3 4 3 0 0 8 11 16 14 16 16
22 22 22 22 22 21 20 20 20 19 19 18 12 6 6 0 2 1 3 5 4 6 9 2 1 7 5 8 6 5 4 8 3 1 4 3 2 2 1 2 2 1 1 1 1 1 2 0 1 1 1 3 0 1 2 1 1 2 0 1 0 1 3 0 2 5 6 4 4 4 4 4 7 8 8 5 4 1 5 5 6 3 4 6 8 9 14
23 22 23 23 22 21 21 20 20 19 19 18 16 6 5 3 2 2 3 3 5 7 7 6 4 11 13 12 12 10 12 12 10 3 2 1 1 1 1 1 2 2 1 2 1 1 1 1 1 1 1 0 2 1 0 2 2 1 1 2 1 1 1 4 3 3 3 4 4 2 2 4 2 1 1 2 2 0 3 2 9 12 6 4 8 8 8
23 23 23 23 23 22 22 21 21 20 20 19 13 5 8 9 5 1 2 4 5 7 8 11 10 11 12 12 15 13 12 11 7 3 4 3 3 1 3 2 3 2 0 1 1 2 2 4 1 3 2 2 6 2 1 2 1 1 2 1 1 1 0 0 3 1 1 1 1 2 2 2 1 2 2 2 1 0 3 6 7 3 8 11 12 11 11
23 23 23 23 23 23 22 22 22 21 21 19 13 8 8 6 6 4 3 4 1 6 6 1 3 5 5 11 4 4 4 5 10 10 4 4 1 4 2 3 1 0 0 2 3 1 2 2 1 2 0 2 3 1 4 2 3 3 1 1 1 1 1 1 1 0 3 2 2 2 2 3 2 1 2 1 0 1 2 4 4 7 7 7 6 11 12
23 23 23 23 23 24 24 23 23 22 21 21 16 7 7 6 3 3 2 1 3 2 2 8 4 9 3 4 8 0 5 6 3 7 7 5 7 4 3 1 4 1 3 1 3 3 1 1 1 1 1 1 3 2 1 1 2 2 2 3 1 1 2 3 0 1 2 0 2 3 3 2 3 2 1 1 0 2 2 2 3 5 6 8 12 12 12
24 24 24 24 23 24 24 23 23 22 21 22 17 9 8 7 2 3 2 2 0 1 1 4 9 4 1 8 3 1 2 1 4 8 10 12 11 11 8 3 3 2 2 1 2 3 2 2 2 1 2 1 1 1 3 4 0 0 2 3 4 0 1 2 2 2 3 2 2 2 2 2 2 1 2 1 2 3 4 5 7 8 11 11 9 10 13
24 24 24 24 25 24 24 24 24 23 23 21 13 8 8 7 5 7 5 4 1 2 2 3 6 10 7 11 7 3 0 1 2 5 4 4 5 4 4 2 3 1 1 1 3 3 3 1 2 1 2 0 2 1 2 0 1 2 2 1 0 2 2 1 2 1 2 5 5 6 4 2 4 3 3 3 3 5 7 7 8 10 12 12 13 9 7
25 25 25 24 25 25 24 24 23 23 22 22 13 11 7 6 4 8 5 1 2 1 3 5 7 11 10 5 4 4 7 1 4 3 3 3 3 4 4 4 4 1 1 2 1 0 0 2 0 0 0 0 1 1 1 1 2 2 1 1 1 0 3 5 4 5 1 4 6 4 2 1 3 4 3 3 4 6 10 10 10 9 11 14 16 14 11
25 25 26 25 25 25 24 23 22 21 22 18 10 9 2 3 2 5 5 2 0 0 2 5 5 3 2 7 9 8 2 3 3 3 5 5 4 3 3 3 3 3 3 3 2 3 2 0 1 2 1 1 3 0 0 1 1 2 2 1 1 2 3 4 5 3 2 2 3 4 1 1 2 3 4 3 3 5 6 4 6 10 11 11 14 16 17
25 26 27 26 25 24 24 23 22 20 18 8 6 2 2 1 1 3 5 4 4 1 2 5 5 4 3 2 5 3 4 4 3 3 5 3 4 3 1 2 3 2 1 1 1 2 0 1 1 1 2 2 0 0 1 1 1 2 1 2 4 4 3 4 4 1 1 0 3 1 3 5 4 4 4 3 3 5 8 7 8 9 7 10 13 11 14
27 27 27 27 25 25 24 23 21 19 12 5 3 2 1 0 0 1 3 2 2 1 0 1 6 5 7 2 1 5 6 5 3 3 1 1 1 1 1 2 1 1 1 2 3 0 1 3 1 2 2 2 3 1 3 2 1 1 0 2 3 2 0 1 1 0 6 6 6 5 5 4 4 6 4 3 4 5 6 4 5 8 9 9 12 13 11
27 28 27 27 27 26 25 23 20 16 6 4 3 3 1 1 1 4 5 1 5 3 0 2 4 4 2 5 4 2 2 1 1 2 1 2 0 2 3 4 1 2 3 3 1 1 1 0 0 1 2 2 5 3 3 2 2 3 2 4 3 1 1 0 3 5 5 9 12 10 6 2 1 3 5 4 4 4 8 8 6 7 10 9 9 10 12
27 27 27 27 28 28 26 24 20 11 6 10 15 18 20 20 18 14 9 1 3 2 2 0 2 1 1 5 6 4 1 2 2 5 0 2 1 3 1 3 2 3 1 4 3 1 1 1 0 2 1 1 2 1 1 2 1 1 3 3 1 2 3 3 4 4 5 0 1 3 7 8 5 0 5 6 6 8 8 9 7 8 9 11 11 11 11
28 28 28 29 28 29 26 23 21 16 10 4 3 5 4 8 6 5 2 3 2 0 1 1 1 2 5 4 3 3 2 2 2 2 1 2 0 1 1 2 3 2 5 3 1 1 1 2 2 2 3 3 1 1 0 1 1 1 1 1 2 3 4 5 4 3 2 3 3 1 6 6 6 6 7 7 6 4 6 8 9 11 11 12 12 11 12
28 27 28 30 29 27 26 19 5 2 3 3 3 3 2 5 5 4 6 3 1 1 1 1 1 1 4 4 2 5 1 0 1 0 1 2 2 1 1 2 4 4 2 3 4 2 1 0 1 1 0 2 1 0 2 3 1 1 1 2 1 4 5 5 2 2 2 3 6 7 9 10 11 8 7 6 8 8 9 8 9 11 11 10 11 11 11
28 29 29 30 30 20 5 1 2 1 0 1 3 3 10 13 11 4 6 2 1 2 1 2 1 2 2 1 2 3 1 1 0 1 0 1 2 2 3 2 2 0 0 3 0 2 1 1 1 2 1 1 2 3 2 4 5 4 4 4 5 4 2 3 7 5 5 5 6 7 8 5 9 8 6 7 7 7 9 9 8 10 10 10 11 10 10
28 29 31 24 9 1 1 1 1 2 0 4 13 21 23 10 1 2 3 1 1 0 1 2 0 4 5 3 1 6 3 4 3 2 4 3 1 2 3 1 0 2 2 3 3 2 1 1 2 0 1 1 1 4 3 3 7 8 5 5 5 1 5 7 7 10 10 7 7 5 6 8 6 5 7 7 7 7 9 10 9 10 12 11 10 10 10
28 26 9 3 2 1 0 1 0 5 15 17 11 4 2 2 1 0 1 1 2 1 1 1 3 2 0 1 4 3 1 3 2 0 0 1 1 0 0 2 0 0 0 1 2 0 1 4 2 0 4 5 4 4 6 5 5 2 2 5 4 4 7 8 9 11 10 7 4 4 4 4 6 4 9 7 7 8 8 8 8 7 9 9 8 9 10
16 6 2 2 1 2 1 1 6 18 11 5 1 0 1 1 1 0 1 0 1 1 1 2 5 3 4 2 6 3 1 0 2 2 1 1 1 1 1 0 1 2 1 2 2 2 1 2 2 3 4 4 3 0 1 3 3 3 4 3 4 6 8 7 9 13 12 11 13 12 13 11 9 6 4 7 5 4 6 7 7 8 9 9 9 9 10
4 7 3 4 1 3 4 6 12 9 2 0 1 1 1 1 2 2 0 0 1 1 1 2 4 4 6 7 4 5 0 1 1 2 1 1 0 1 1 1 1 1 0 0 3 3 1 2 1 2 5 3 3 1 2 4 4 3 4 4 4 5 7 9 3 1 3 2 3 5 2 5 10 11 9 8 8 8 6 6 7 8 8 9 10 11 10
3 3 3 1 5 4 6 10 7 0 0 1 1 1 1 1 1 0 1 0 0 2 1 2 0 1 1 1 3 4 3 1 1 2 2 1 1 2 1 0 0 0 0 0 2 2 2 1 1 1 5 3 4 2 4 4 4 3 2 3 4 4 3 2 3 4 5 7 6 4 5 7 7 7 7 9 10 9 8 8 8 9 10 10 10 9 9
4 5 6 7 7 8 7 3 1 0 1 0 2 1 1 1 1 1 1 2 3 1 1 1 2 1 3 5 5 3 1 0 1 1 1 1 0 0 1 1 1 1 0 2 1 2 2 0 2 5 6 7 6 2 4 5 3 4 4 4 4 4 4 4 4 2 5 8 5 7 7 8 8 7 7 7 7 8 8 7 7 7 8 7 7 9 10
15 11 3 3 2 2 1 1 1 1 1 0 2 1 1 0 2 2 1 2 1 0 2 0 2 1 1 1 2 1 2 0 1 1 1 1 0 2 2 1 1 1 0 1 1 2 1 1 2 7 6 5 3 4 5 5 4 3 4 4 4 4 6 6 5 5 3 7 9 8 8 9 8 8 8 8 7 7 6 8 9 9 8 7 8 9 10
6 3 2 1 2 2 0 1 0 1 1 1 2 1 1 1 1 1 0 0 0 0 1 3 4 4 2 2 0 1 1 1 3 2 1 0 1 1 1 0 0 2 0 1 1 0 2 3 7 5 1 3 2 3 3 4 4 3 2 1 2 3 3 4 5 7 5 4 4 5 6 7 7 6 7 8 10 11 9 9 8 10 9 8 9 9 9
2 2 1 0 1 1 1 2 1 2 3 2 2 1 3 2 2 2 1 2 0 1 3 0 1 1 4 4 1 0 1 1 1 1 1 0 1 0 1 0 1 2 1 1 1 2 1 3 5 4 5 3 4 4 3 4 5 6 5 4 4 5 5 6 5 6 6 6 7 7 7 7 7 7 7 8 7 9 11 10 9 10 9 10 9 9 8
2 1 1 1 2 1 0 1 0 0 1 2 1 4 3 3 2 1 2 1 2 3 6 5 2 0 3 2 1 1 1 1 1 0 0 1 1 0 0 0 1 0 1 1 1 2 4 6 7 7 5 5 4 4 4 4 3 4 7 6 5 5 5 6 6 6 7 6 5 6 7 7 8 8 7 7 8 8 9 9 9 11 10 9 10 10 8
2 0 0 0 0 2 0 1 1 1 0 1 1 3 2 2 3 4 3 0 2 3 4 3 3 3 1 1 0 1 1 1 0 1 1 0 0 0 1 0 1 0 0 1 2 4 5 6 6 6 4 3 3 4 4 4 4 5 5 5 6 5 5 5 6 7 5 6 6 7 7 7 7 7 7 6 5 6 9 10 9 10 12 12 10 9 10
2 1 0 1 2 1 1 1 1 2 1 1 1 2 3 2 1 3 3 2 3 1 3 2 1 1 0 1 1 1 0 0 1 1 0 1 0 1 1 1 1 1 1 1 4 5 6 6 6 6 3 5 5 7 5 5 5 5 5 6 6 6 6 6 5 5 7 8 7 7 7 6 7 8 9 9 7 5 6 8 10 9 7 7 9 9 10
1 0 0 1 1 0 1 1 2 0 2 4 3 1 3 5 2 5 5 1 1 4 3 2 2 2 1 0 1 0 1 0 1 2 0 1 0 2 1 1 0 1 4 6 5 5 5 6 4 3 3 4 5 6 6 6 7 7 7 7 7 8 7 8 8 8 7 7 7 7 7 7 7 7 6 6 7 6 5 6 8 8 8 10 10 10 8
0 1 0 0 1 2 2 0 2 1 5 6 4 4 3 2 4 5 2 4 4 3 1 1 0 1 1 1 0 1 1 1 2 0 1 0 1 1 1 0 3 3 2 3 5 7 8 6 3 2 3 4 5 6 6 5 5 6 5 5 5 6 7 8 7 7 7 7 7 8 7 7 6 6 9 10 8 6 6 6 6 7 7 8 10 10 10
1 1 3 2 3 2 0 1 0 2 5 4 3 3 2 4 2 5 2 3 5 5 4 1 0 0 1 1 1 1 1 1 2 2 2 2 1 2 2 2 4 7 7 6 6 6 7 5 4 5 4 5 6 5 5 6 7 6 5 6 5 5 5 6 8 8 6 5 6 8 8 8 9 10 6 5 7 7 5 4 5 6 8 8 8 10 10
1 1 2 2 0 2 2 1 1 4 4 3 2 3 1 3 3 5 2 3 3 5 2 1 0 0 1 2 3 1 0 2 1 0 1 2 3 2 3 6 6 7 8 6 7 6 6 5 5 6 6 7 7 6 5 5 5 5 5 6 6 6 6 5 6 6 6 5 7 8 8 7 5 4 6 7 7 7 8 7 5 4 5 7 7 8 10
Wind_Direction
349 350 351 353 353 355 356 355 355 355 350 1 344 317 36 28 224 251 292 290 335 355 50 270 229 277 239 283 276 263 269 253 270 299 287 299 222 233 202 222 155 241 147 146 126 134 112 151 176 211 138 218 210 208 168 149 151 140 218 137 209 132 92 131 283 307 295 313 307 129 183 165 167 211 166 146 201 189 173 161 181 145 148 97 298 185 253
352 351 350 351 353 357 357 354 354 352 356 344 329 41 44 319 314 328 15 358 6 310 348 353 332 277 280 282 276 276 263 249 298 243 262 253 349 322 307 331 194 293 184 176 181 191 104 251 140 8 251 229 231 150 170 157 160 154 219 161 212 146 283 124 106 58 333 1 21 38 37 157 175 186 197 194 172 113 146 104 76 141 208 164 134 227 261
349 351 352 351 352 355 357 356 352 350 348 356 345 31 307 315 292 252 326 59 8 298 10 324 327 317 311 307 308 326 297 224 235 248 265 269 260 300 269 220 122 284 237 207 66 49 134 139 243 139 185 221 14 155 152 184 156 182 179 170 163 150 195 141 144 160 163 176 181 196 191 201 233 331 179 195 171 144 121 168 144 202 266 133 151 208 257
350 350 351 350 351 353 354 355 353 350 345 344 220 317 3 348 342 298 331 176 256 264 262 272 270 299 308 309 289 278 286 297 248 239 268 244 257 243 267 296 216 262 48 39 43 39 44 124 178 147 223 317 328 160 174 168 179 222 164 153 135 171 139 145 155 151 175 198 206 241 141 104 192 207 181 195 190 181 153 115 133 195 191 176 223 163 154
353 353 352 350 350 351 353 355 356 352 348 347 140 119 155 202 141 168 309 340 223 255 247 256 244 260 319 301 3 301 305 289 310 170 308 250 220 289 194 326 32 339 60 49 70 342 77 124 135 173 132 260 244 310 175 206 193 175 159 156 96 98 163 209 155 192 207 177 200 194 285 196 189 154 195 190 171 174 145 166 211 160 105 231 288 180 141
353 352 352 351 349 350 352 354 355 352 353 360 190 207 213 13 278 191 222 282 269 20 283 206 237 256 260 267 305 284 317 341 334 317 221 281 309 134 316 42 64 33 30 131 91 358 52 86 151 42 15 336 328 53 14 158 248 181 157 179 131 138 168 253 139 234 139 191 250 251 162 161 222 187 166 185 182 172 181 198 174 146 169 204 190 176 175
354 353 349 350 351 351 351 354 354 353 351 0 223 306 223 197 260 253 3 324 246 189 255 280 242 266 238 243 260 292 324 329 7 312 309 344 338 34 76 338 341 338 343 119 123 114 100 25 324 154 123 169 14 56 16 219 337 166 116 177 171 122 213 182 167 170 158 4 8 326 163 135 69 329 198 180 169 192 187 165 183 167 162 178 160 178 188
352 350 350 350 351 351 353 355 355 354 351 356 293 2 319 2 336 304 6 227 276 268 257 236 258 301 325 321 273 296 322 343 340 324 353 336 310 352 76 334 334 331 359 61 71 10 130 158 133 228 117 16 105 141 190 224 338 142 162 173 262 148 254 132 118 134 172 348 20 50 55 101 132 340 7 68 132 82 64 99 95 81 49 71 149 159 175
350 350 351 351 351 352 352 354 357 353 355 33 29 336 42 308 289 310 321 309 263 254 258 298 348 306 326 156 282 304 308 335 330 290 232 228 262 17 17 345 327 341 10 44 26 292 153 103 93 176 143 129 203 122 259 154 131 124 153 177 172 145 229 53 89 135 257 332 30 48 51 53 94 83 21 107 145 157 196 145 204 138 145 125 121 129 207
348 349 351 350 352 353 352 353 355 356 355 120 337 335 307 271 251 295 347 283 328 341 316 297 196 355 215 189 250 303 268 270 344 332 307 293 252 253 59 336 3 329 27 16 350 330 187 229 214 183 206 184 344 102 126 153 156 160 178 342 136 155 130 154 143 140 249 267 23 55 53 66 48 237 292 263 311 322 43 21 97 170 140 127 140 211 190
348 349 349 351 354 356 354 353 352 359 359 3 349 303 323 348 330 332 62 242 304 349 318 325 51 297 324 273 300 282 274 284 154 131 282 360 18 99 31 13 21 300 275 308 301 250 229 208 217 128 95 101 104 108 94 43 111 135 148 117 125 134 135 152 156 162 196 341 25 60 60 149 231 241 237 188 208 212 172 192 189 162 148 185 195 184 127
348 348 350 351 354 356 355 350 349 356 1 343 329 304 251 286 301 272 319 324 289 194 7 298 264 282 285 284 275 281 292 294 255 183 244 269 276 314 329 291 120 339 242 260 322 305 182 99 56 82 67 50 129 104 14 248 77 92 111 129 155 142 120 140 151 106 121 350 33 45 244 230 230 263 226 200 218 185 157 27 322 253 4 252 138 147 157
347 348 350 350 353 354 355 351 353 354 357 349 337 325 322 305 303 279 276 272 290 327 341 315 302 278 275 282 285 272 257 255 245 204 224 254 299 321 231 193 173 234 3 349 351 22 75 202 357 125 240 351 345 233 257 24 52 81 75 95 129 150 134 145 38 91 65 53 45 148 235 231 317 313 24 157 137 185 115 36 276 244 201 168 152 173 154
347 348 349 349 351 352 352 353 352 355 350 350 336 327 309 246 282 306 306 324 290 239 236 282 296 335 336 314 293 287 299 315 323 163 222 226 225 261 267 212 224 259 352 345 14 52 43 39 52 29 285 4 7 24 322 296 20 56 37 12 70 157 114 122 85 343 141 166 139 204 309 325 5 5 224 173 167 189 179 179 243 204 200 157 147 143 145
347 347 348 348 349 349 350 350 352 353 352 348 319 306 296 264 247 256 312 301 294 299 233 317 338 326 320 310 317 314 345 316 18 291 242 186 201 223 215 233 243 284 357 4 343 32 128 102 59 77 334 58 108 238 339 14 296 67 78 28 68 337 163 206 116 277 121 127 52 5 28 240 264 230 238 182 166 133 135 101 278 265 230 183 148 152 149
345 347 346 346 346 348 348 347 349 351 351 348 325 315 289 268 230 233 273 305 318 319 275 201 272 296 309 300 308 298 310 322 302 298 336 307 254 309 269 252 266 166 80 78 76 89 34 129 193 97 178 190 226 64 281 338 351 337 53 46 66 39 67 140 137 142 65 80 131 202 191 242 213 231 225 166 118 112 149 58 275 226 173 175 153 151 158
344 345 345 344 345 345 346 346 348 350 349 350 336 325 310 230 229 213 245 244 216 238 283 306 278 238 278 305 355 337 308 259 159 51 338 318 300 280 299 312 254 131 162 78 10 59 38 48 90 138 286 199 108 182 93 32 80 359 350 17 42 46 3 47 70 120 165 129 126 222 204 214 331 248 170 140 120 132 85 46 269 199 176 170 160 160 161
342 344 344 343 343 344 344 344 346 348 348 346 338 322 298 286 224 236 225 252 286 285 260 230 9 323 276 233 301 265 227 31 45 137 181 260 327 323 309 2 23 337 154 161 24 66 70 104 130 154 178 247 179 352 183 188 145 183 146 129 327 353 358 52 159 149 138 146 201 342 299 274 245 218 152 129 153 130 154 191 249 179 171 173 166 162 161
341 342 343 342 342 342 342 342 343 345 348 350 340 314 234 266 235 225 285 288 266 273 255 226 270 264 268 279 252 273 287 286 144 335 308 0 270 231 228 264 197 342 350 136 73 104 118 280 97 110 134 295 13 195 207 120 199 39 95 92 69 331 98 9 81 129 160 183 143 209 237 239 167 334 136 170 119 166 206 233 255 159 171 172 166 161 165
339 341 341 341 340 340 341 340 341 342 346 350 354 321 294 306 266 215 230 251 263 269 289 280 234 251 229 220 282 315 329 334 150 139 161 257 289 15 25 42 330 131 286 54 67 190 97 211 207 102 35 197 235 174 54 270 312 160 192 215 138 193 128 189 157 164 53 37 83 57 207 233 148 122 77 165 153 224 210 278 330 178 169 162 170 164 162
337 338 339 339 339 339 338 338 338 338 342 346 351 329 319 303 8 308 258 263 294 303 296 303 227 241 260 267 243 229 243 242 202 242 239 207 231 84 112 191 225 83 212 175 175 256 161 151 227 179 218 135 241 44 206 204 348 248 168 220 197 221 97 208 251 188 144 150 153 197 216 196 197 156 181 207 197 190 175 144 104 119 145 166 154 165 162
334 336 337 336 336 337 336 336 335 335 337 341 343 317 279 271 260 313 291 273 239 218 246 277 295 283 265 255 251 227 227 234 224 185 151 268 315 186 230 207 221 176 216 127 44 10 9 155 76 90 188 203 20 130 130 105 241 263 311 125 161 221 187 176 170 213 128 190 213 247 244 237 256 70 217 241 273 186 162 142 156 146 161 148 146 152 148
332 333 334 334 335 335 335 332 332 332 334 336 338 315 302 304 296 271 250 267 247 251 269 276 283 274 268 251 237 229 220 225 226 171 163 110 329 266 211 174 285 222 121 130 218 173 199 133 195 160 97 207 159 147 14 115 208 263 155 260 176 317 219 238 87 260 226 254 201 268 305 331 324 342 257 236 317 323 125 137 143 205 157 164 161 154 142
330 330 332 333 333 333 332 330 328 328 330 331 333 310 308 292 291 313 246 225 281 298 300 288 348 335 349 331 351 134 189 211 219 217 171 149 181 302 320 246 253 354 312 244 171 172 193 124 201 135 209 221 97 85 150 270 247 189 103 307 309 258 145 63 106 216 124 235 354 2 292 314 323 305 349 353 186 235 164 161 159 143 136 122 127 142 142
328 328 330 330 331 330 330 328 326 326 325 327 326 298 274 279 243 203 234 332 328 78 298 307 266 237 251 227 276 246 211 204 190 181 182 197 193 196 223 190 174 212 267 224 121 61 51 117 185 127 127 254 134 245 231 124 289 154 181 250 40 261 174 79 90 122 147 235 301 273 260 252 263 238 207 170 174 56 73 119 129 125 119 128 135 130 133
326 325 326 327 328 328 326 325 324 323 323 323 324 307 301 271 166 153 219 281 216 102 11 308 288 295 245 344 339 246 286 235 184 186 190 202 208 216 237 302 294 49 97 48 140 195 154 73 93 124 126 248 81 139 201 202 174 115 147 228 197 169 113 216 153 142 275 293 241 267 275 255 259 254 210 223 168 133 105 111 119 121 122 124 128 143 148
324 323 322 324 325 325 324 323 323 322 322 323 319 293 270 264 190 182 190 177 179 326 17 273 273 300 352 320 284 346 211 278 106 131 166 208 230 225 214 261 266 331 142 54 37 120 64 91 108 213 155 222 120 150 142 55 137 154 210 273 279 100 161 159 76 36 306 207 216 173 133 242 236 226 209 162 182 136 124 119 121 130 130 135 130 126 131
322 320 320 321 321 321 322 321 321 322 323 323 311 294 264 246 214 200 210 202 57 179 253 272 296 298 310 281 269 298 313 59 117 124 130 98 89 129 155 199 192 114 57 123 243 57 57 103 216 209 133 278 62 11 13 126 83 53 37 267 193 166 202 141 168 162 244 254 219 181 142 175 230 190 180 161 166 146 140 151 147 147 144 142 135 132 132
319 318 318 319 319 319 319 319 320 322 325 328 309 303 311 207 194 176 203 179 125 111 250 265 290 322 358 303 322 328 329 76 54 89 102 74 41 53 98 133 109 121 100 69 91 100 106 133 150 120 80 194 103 77 59 192 109 206 241 239 231 236 180 195 181 166 251 261 177 159 132 231 159 134 135 135 152 133 116 121 138 145 148 147 142 145 142
318 317 316 316 316 316 316 316 317 320 327 331 322 28 18 26 96 196 178 179 178 127 355 359 346 262 308 320 300 287 307 349 23 47 44 47 69 37 14 74 67 84 90 133 140 93 209 131 302 293 306 346 142 159 79 151 119 243 279 306 282 294 251 229 175 106 296 218 121 130 99 83 88 112 109 119 119 133 133 141 143 139 139 143 137 142 145
316 315 314 314 314 313 312 312 313 316 325 325 342 34 56 54 22 36 149 145 194 207 183 136 237 296 325 252 228 290 323 337 355 26 20 84 110 110 22 97 73 124 31 356 46 105 130 23 15 349 352 37 100 106 163 133 252 312 288 302 292 304 282 198 242 193 123 103 90 81 80 86 111 90 61 88 109 116 110 105 118 132 136 136 140 141 145
315 313 313 312 311 310 308 308 307 310 288 239 206 170 176 176 184 297 278 311 23 27 298 319 327 353 289 309 290 278 336 314 28 358 23 32 30 21 2 51 88 2 114 104 168 67 53 208 132 306 40 328 78 94 82 88 160 223 327 334 324 337 40 68 101 101 103 121 107 75 66 75 167 142 183 167 119 109 121 124 124 127 129 127 130 136 140
313 313 312 310 308 307 305 304 301 297 255 255 254 272 277 275 277 273 257 198 97 208 159 124 236 256 305 261 318 317 348 341 3 26 30 343 2 11 31 7 22 39 18 85 6 78 203 128 90 60 356 36 85 107 96 176 213 254 277 276 323 58 86 89 96 119 132 41 64 142 189 185 199 130 117 122 121 123 122 120 124 118 119 127 130 132 135
313 312 310 308 306 305 304 301 299 291 272 257 273 242 245 217 240 262 120 133 113 165 87 148 294 314 271 315 16 281 18 53 306 27 28 317 257 63 315 16 356 79 347 68 274 55 344 61 46 289 334 19 47 86 310 263 242 275 312 44 76 76 84 85 86 71 355 357 30 69 123 123 111 105 95 99 95 93 110 119 127 129 133 135 139 141 138
314 312 309 307 305 303 303 302 294 163 189 239 259 269 165 139 335 248 178 153 116 314 39 303 118 308 337 346 41 273 314 82 311 5 101 310 25 52 341 54 323 62 318 82 48 73 350 335 164 63 274 300 46 8 248 239 254 217 136 109 148 118 94 84 42 29 42 57 85 95 110 121 114 113 122 119 120 128 127 131 137 134 138 140 138 140 140
315 313 309 307 304 301 295 149 161 122 338 232 225 283 284 296 297 259 197 225 164 154 134 250 83 214 157 264 310 283 332 18 286 321 228 295 357 43 93 108 61 61 308 73 129 351 49 313 26 288 307 55 228 189 235 197 179 191 186 181 190 161 177 172 137 90 68 68 86 102 100 99 117 126 121 125 129 135 135 136 140 139 135 137 138 139 139
317 313 311 306 299 111 331 216 297 91 258 265 282 289 288 284 289 77 94 143 261 113 194 169 285 235 168 219 266 276 40 320 336 6 336 30 236 300 39 41 90 312 38 8 17 43 290 37 101 31 324 174 249 224 217 194 177 177 195 197 188 192 100 97 117 105 86 72 73 75 105 115 110 115 120 132 141 142 140 144 151 146 144 142 140 140 145
317 313 318 338 18 7 345 341 70 305 318 301 308 312 3 68 174 337 356 90 273 66 328 78 240 245 2 103 246 248 75 273 66 352 300 229 90 313 17 91 247 26 74 261 255 178 19 41 40 138 266 259 253 243 232 210 213 208 165 160 166 159 140 138 131 112 106 92 72 92 79 102 126 151 140 142 145 152 151 146 142 140 135 137 138 137 136
316 300 352 353 68 254 205 260 326 323 310 270 154 310 266 7 77 321 228 257 23 256 275 142 244 180 144 199 273 286 181 349 355 26 114 262 130 299 18 75 300 68 337 15 294 45 333 339 357 13 289 289 338 302 187 168 171 189 159 165 154 157 149 162 158 147 160 171 175 178 160 162 164 171 157 138 137 130 138 141 139 141 142 137 137 141 141
340 351 355 338 313 257 293 296 327 324 301 3 331 108 206 332 117 260 347 109 280 282 94 242 214 175 189 199 227 302 3 73 339 291 195 301 6 114 260 90 270 93 242 83 259 33 109 284 291 33 293 275 251 253 164 153 158 180 162 174 177 174 172 161 163 59 77 56 139 146 135 150 153 149 153 148 140 136 133 134 136 135 140 143 143 144 145
357 320 334 296 279 312 306 322 323 77 46 80 4 4 63 302 286 191 87 72 207 235 196 188 343 280 254 79 130 224 283 95 115 124 114 100 248 89 51 58 242 80 321 270 279 62 74 78 350 210 244 232 234 214 155 132 153 163 184 181 190 171 145 115 114 127 108 111 116 117 125 130 130 137 145 150 146 146 145 143 144 145 139 136 137 133 128
273 282 265 276 283 282 298 293 224 343 14 26 133 254 237 230 328 351 139 153 242 242 314 169 278 234 267 183 204 170 281 163 131 113 100 68 293 131 183 318 7 94 240 234 145 59 74 187 309 290 258 254 258 248 166 149 176 156 187 185 173 164 146 134 122 124 137 133 131 132 134 133 134 138 144 141 138 137 138 135 120 114 122 124 124 132 137
303 294 277 270 301 280 242 331 288 123 149 219 57 346 341 172 214 180 263 269 303 112 265 246 244 217 275 25 301 220 211 245 273 311 60 344 313 55 80 22 49 18 219 343 67 50 21 258 248 252 255 265 248 205 195 170 165 171 180 178 176 174 160 150 141 130 124 136 142 140 141 139 143 148 144 133 128 121 114 119 130 138 141 138 136 138 140
287 237 244 215 290 271 133 179 279 78 355 48 116 194 226 318 305 36 40 277 282 308 354 33 319 62 319 300 122 309 349 328 61 75 54 317 80 342 52 338 227 258 17 40 35 98 235 224 218 230 245 282 267 220 191 148 134 119 103 116 123 119 101 104 115 110 95 75 96 121 128 128 126 133 142 143 146 142 141 143 146 145 146 141 142 146 146
0 338 317 289 301 269 78 270 332 118 199 240 153 190 161 172 244 187 161 251 95 328 316 270 220 28 294 276 12 301 107 222 310 97 252 22 52 15 100 270 255 33 63 264 335 322 342 283 274 285 265 240 215 196 195 171 157 157 154 124 128 133 138 140 133 120 127 138 143 137 133 135 134 145 152 152 150 144 144 148 150 144 150 149 146 143 151
7 280 17 67 316 299 118 217 2 306 286 147 200 202 170 247 177 238 251 160 328 332 352 314 301 178 261 267 137 262 349 72 53 241 149 65 102 260 248 254 72 64 16 48 40 243 225 242 282 286 256 220 191 181 178 179 137 116 123 145 174 155 158 148 149 141 143 141 143 138 140 144 145 147 154 152 150 149 146 145 152 149 145 144 154 155 155
268 261 173 106 140 271 82 166 239 199 176 234 226 187 207 274 218 235 258 145 283 262 268 260 235 206 260 307 330 335 31 53 118 279 76 99 178 262 16 110 268 67 131 281 258 257 271 263 247 256 254 215 174 169 171 159 151 157 165 146 150 153 148 143 144 142 152 142 137 139 143 148 152 150 138 134 147 154 151 150 154 153 156 163 160 150 153
295 272 3 133 232 200 170 245 264 288 245 212 292 284 272 271 20 3 302 237 235 318 331 349 10 351 349 281 87 169 283 36 107 282 147 166 38 40 7 36 309 255 192 186 238 223 238 253 257 273 242 196 176 164 170 164 166 162 153 154 159 150 150 144 144 145 146 148 152 151 149 144 141 150 160 157 148 145 157 159 160 163 148 130 138 151 157
249 332 246 214 218 158 236 258 12 213 266 317 285 358 8 23 334 281 277 268 311 299 258 179 207 123 260 218 102 96 264 352 102 243 17 32 101 211 147 222 312 318 267 182 223 225 225 244 248 250 235 183 184 178 179 174 166 164 163 162 170 169 158 157 163 164 161 152 151 150 155 159 153 151 145 140 145 164 170 161 151 147 149 151 152 155 159
178 275 300 248 334 307 253 59 68 312 319 338 18 347 335 10 327 293 278 348 316 334 356 43 208 145 240 125 287 355 246 249 145 43 62 142 196 170 75 333 228 195 262 237 229 248 249 256 251 254 216 196 190 181 171 177 167 167 172 171 161 155 161 153 154 162 162 160 161 163 152 143 147 145 156 172 173 151 142 149 158 153 154 160 156 159 162
254 231 240 190 167 221 90 346 337 318 321 316 319 303 4 322 271 292 328 349 331 14 49 80 275 108 166 36 64 116 237 177 87 148 159 198 179 106 165 203 241 211 228 234 223 246 258 247 210 226 207 208 199 190 177 170 167 173 167 161 165 162 154 153 156 163 170 162 148 134 148 164 174 176 171 128 122 133 136 148 164 161 158 160 165 161 160
103 198 258 288 227 184 176 190 165 209 226 243 268 250 148 297 264 271 303 358 10 63 334 267 81 90 70 183 218 191 90 45 47 67 11 268 159 144 210 200 223 219 221 251 269 244 231 245 221 214 205 201 194 179 164 158 155 154 160 163 157 155 157 156 160 162 153 146 161 169 178 177 157 129 122 124 124 129 148 172 183 166 165 165 171 173 167